Location: Losili
(4.4086°N, 32.7049°E)
Time: 20:05:10
(UTC+00:00)

CSL-04 Debris - Pass Details

Date: 18 September 2019
Orbit: 828 x 848 km, 99.0° (Epoch: 16 October)

Event Time Altitude Azimuth Distance (km) Brightness Sun altitude
Rises 16:14:43 0° 154° (SSE) 3,367 7.0 -7.7°
Reaches altitude 10° 16:17:11 10° 147° (SSE) 2,430 6.3 -8.3°
Maximum altitude 16:22:14 43° 77° (ENE) 1,154 4.5 -9.5°
Drops below altitude 10° 16:27:17 10° 7° (N) 2,421 6.6 -10.8°
Sets 16:29:43 0° 0° (N) 3,353 7.4 -11.4°
